When you browse on this site, cookies collect data to enhance your experience and personalize the content and advertising you see.
Visit our Privacy Policy to learn more. By continuing to use the site, you agree to this use of cookies and data.

Hourly Weather Chimoio

Today, 8 August, Saturday

Time Temperature Precipitation Wind Pressure Humidity
00:00 +15°C° 0.1 mm 4 mps 711 mmHg 83%
01:00 +14°C° 0.1 mm 4 mps 711 mmHg 83%
02:00 +14°C° 0 mm 4 mps 710 mmHg 84%
03:00 +13°C° 0 mm 3 mps 710 mmHg 84%
04:00 +13°C° 0 mm 3 mps 710 mmHg 84%
05:00 +12°C° 0 mm 3 mps 710 mmHg 84%
06:00 +13°C° 0 mm 3 mps 710 mmHg 81%
07:00 +13°C° 0 mm 3 mps 711 mmHg 78%
08:00 +14°C° 0 mm 3 mps 712 mmHg 75%
09:00 +16°C° 0 mm 3 mps 712 mmHg 70%
10:00 +17°C° 0 mm 3 mps 712 mmHg 64%
11:00 +18°C° 0 mm 3 mps 711 mmHg 59%
12:00 +19°C° 0 mm 3 mps 711 mmHg 55%
13:00 +20°C° 0 mm 3 mps 710 mmHg 51%
14:00 +21°C° 0 mm 3 mps 709 mmHg 46%
15:00 +20°C° 0 mm 3 mps 709 mmHg 49%
16:00 +19°C° 0 mm 3 mps 709 mmHg 52%
17:00 +18°C° 0 mm 3 mps 708 mmHg 55%
18:00 +17°C° 0 mm 2 mps 708 mmHg 61%
19:00 +15°C° 0 mm 1 mps 708 mmHg 68%
20:00 +14°C° 0 mm 1 mps 708 mmHg 74%
21:00 +12°C° 0 mm 0 mps 708 mmHg 79%
22:00 +12°C° 0 mm 0 mps 708 mmHg 83%
23:00 +11°C° 0 mm 0 mps 708 mmHg 88%

Tomorrow, 9 August, Sunday

Time Temperature Precipitation Wind Pressure Humidity
00:00 +11°C° 0 mm 0 mps 707 mmHg 89%
01:00 +10°C° 0 mm 0 mps 707 mmHg 90%
02:00 +10°C° 0 mm 0 mps 706 mmHg 92%
03:00 +10°C° 0 mm 0 mps 706 mmHg 92%
04:00 +10°C° 0 mm 0 mps 706 mmHg 92%
05:00 +9°C° 0 mm 0 mps 706 mmHg 92%
06:00 +11°C° 0 mm 0 mps 706 mmHg 82%
07:00 +13°C° 0 mm 0 mps 706 mmHg 73%
08:00 +15°C° 0 mm 0 mps 707 mmHg 63%
09:00 +18°C° 0 mm 0 mps 707 mmHg 51%
10:00 +21°C° 0 mm 0 mps 707 mmHg 39%
11:00 +24°C° 0 mm 0 mps 708 mmHg 27%
12:00 +26°C° 0 mm 1 mps 707 mmHg 25%
13:00 +27°C° 0 mm 1 mps 706 mmHg 23%
14:00 +27°C° 0 mm 1 mps 705 mmHg 20%
15:00 +26°C° 0 mm 2 mps 704 mmHg 23%
16:00 +24°C° 0 mm 2 mps 704 mmHg 25%
17:00 +23°C° 0 mm 2 mps 704 mmHg 27%
18:00 +21°C° 0 mm 1 mps 704 mmHg 33%
19:00 +19°C° 0 mm 1 mps 704 mmHg 39%
20:00 +15°C° 0 mm 0 mps 704 mmHg 45%
21:00 +14°C° 0 mm 0 mps 704 mmHg 47%
22:00 +14°C° 0 mm 0 mps 704 mmHg 49%
23:00 +13°C° 0 mm 0 mps 704 mmHg 51%

Day after tomorrow, 10 August, Monday

Time Temperature Precipitation Wind Pressure Humidity
00:00 +13°C° 0 mm 0 mps 703 mmHg 53%
01:00 +12°C° 0 mm 0 mps 703 mmHg 54%
02:00 +13°C° 0 mm 1 mps 702 mmHg 56%
03:00 +13°C° 0 mm 1 mps 702 mmHg 57%
04:00 +12°C° 0 mm 1 mps 702 mmHg 59%
05:00 +12°C° 0 mm 1 mps 702 mmHg 60%
06:00 +14°C° 0 mm 2 mps 703 mmHg 53%
07:00 +16°C° 0 mm 2 mps 703 mmHg 47%
08:00 +18°C° 0 mm 2 mps 704 mmHg 40%
09:00 +22°C° 0 mm 1 mps 704 mmHg 32%
10:00 +26°C° 0 mm 1 mps 705 mmHg 24%
11:00 +30°C° 0 mm 1 mps 705 mmHg 17%
12:00 +30°C° 0 mm 2 mps 705 mmHg 16%
13:00 +30°C° 0 mm 3 mps 704 mmHg 16%
14:00 +30°C° 0 mm 4 mps 703 mmHg 16%
15:00 +29°C° 0 mm 4 mps 703 mmHg 19%
16:00 +27°C° 0 mm 3 mps 703 mmHg 22%
17:00 +26°C° 0 mm 3 mps 703 mmHg 25%
18:00 +24°C° 0 mm 2 mps 703 mmHg 29%
19:00 +21°C° 0 mm 2 mps 704 mmHg 34%
20:00 +19°C° 0 mm 1 mps 704 mmHg 38%
21:00 +19°C° 0 mm 1 mps 704 mmHg 42%
22:00 +16°C° 0 mm 0 mps 704 mmHg 46%
23:00 +15°C° 0 mm 0 mps 704 mmHg 50%

11 August, Tuesday

Time Temperature Precipitation Wind Pressure Humidity
00:00 +14°C° 0 mm 0 mps 704 mmHg 50%
01:00 +14°C° 0 mm 0 mps 704 mmHg 50%
02:00 +15°C° 0 mm 1 mps 704 mmHg 50%
03:00 +14°C° 0 mm 1 mps 704 mmHg 53%
04:00 +14°C° 0 mm 1 mps 704 mmHg 56%
05:00 +13°C° 0 mm 1 mps 704 mmHg 59%
06:00 +14°C° 0 mm 1 mps 705 mmHg 59%
07:00 +16°C° 0 mm 1 mps 706 mmHg 58%
08:00 +17°C° 0 mm 2 mps 707 mmHg 58%
09:00 +19°C° 0 mm 2 mps 707 mmHg 52%
10:00 +21°C° 0 mm 2 mps 707 mmHg 46%
11:00 +24°C° 0 mm 2 mps 708 mmHg 40%
12:00 +25°C° 0 mm 3 mps 707 mmHg 39%
13:00 +26°C° 0 mm 3 mps 706 mmHg 37%
14:00 +26°C° 0 mm 3 mps 705 mmHg 35%
15:00 +25°C° 0 mm 3 mps 705 mmHg 36%
16:00 +25°C° 0 mm 2 mps 705 mmHg 38%
17:00 +24°C° 0 mm 2 mps 705 mmHg 39%
18:00 +21°C° 0 mm 2 mps 705 mmHg 46%
19:00 +20°C° 0 mm 1 mps 705 mmHg 54%
20:00 +18°C° 0 mm 1 mps 705 mmHg 62%
21:00 +16°C° 0 mm 1 mps 705 mmHg 68%
22:00 +15°C° 0 mm 1 mps 705 mmHg 75%
23:00 +13°C° 0 mm 0 mps 705 mmHg 82%

12 August, Wednesday

Time Temperature Precipitation Wind Pressure Humidity
00:00 +13°C° 0 mm 0 mps 705 mmHg 84%
01:00 +12°C° 0 mm 0 mps 704 mmHg 86%
02:00 +12°C° 0 mm 0 mps 704 mmHg 88%
03:00 +12°C° 0 mm 0 mps 704 mmHg 88%
04:00 +12°C° 0 mm 0 mps 704 mmHg 88%
05:00 +11°C° 0 mm 0 mps 704 mmHg 88%
06:00 +13°C° 0 mm 0 mps 705 mmHg 78%
07:00 +16°C° 0 mm 0 mps 705 mmHg 67%
08:00 +18°C° 0 mm 0 mps 706 mmHg 56%
09:00 +21°C° 0 mm 0 mps 707 mmHg 47%
10:00 +26°C° 0 mm 1 mps 707 mmHg 37%
11:00 +29°C° 0 mm 1 mps 707 mmHg 27%
12:00 +29°C° 0 mm 1 mps 706 mmHg 25%
13:00 +29°C° 0 mm 1 mps 705 mmHg 23%
14:00 +30°C° 0 mm 2 mps 704 mmHg 20%
15:00 +28°C° 0 mm 2 mps 704 mmHg 23%
16:00 +27°C° 0 mm 2 mps 704 mmHg 25%
17:00 +26°C° 0 mm 2 mps 704 mmHg 27%
18:00 +23°C° 0 mm 2 mps 704 mmHg 33%
19:00 +21°C° 0 mm 1 mps 704 mmHg 39%
20:00 +19°C° 0 mm 1 mps 704 mmHg 45%
21:00 +18°C° 0 mm 1 mps 704 mmHg 52%
22:00 +15°C° 0 mm 0 mps 704 mmHg 59%
23:00 +15°C° 0 mm 0 mps 704 mmHg 67%

13 August, Thursday

Time Temperature Precipitation Wind Pressure Humidity
00:00 +14°C° 0 mm 0 mps 704 mmHg 72%
01:00 +14°C° 0 mm 0 mps 704 mmHg 78%
02:00 +13°C° 0 mm 0 mps 703 mmHg 83%
03:00 +13°C° 0 mm 0 mps 703 mmHg 83%
04:00 +13°C° 0 mm 0 mps 704 mmHg 83%
05:00 +13°C° 0 mm 1 mps 704 mmHg 83%
06:00 +16°C° 0 mm 1 mps 705 mmHg 72%
07:00 +17°C° 0 mm 0 mps 706 mmHg 61%
08:00 +19°C° 0 mm 0 mps 707 mmHg 49%
09:00 +23°C° 0 mm 1 mps 707 mmHg 41%
10:00 +25°C° 0 mm 2 mps 707 mmHg 32%
11:00 +27°C° 0 mm 3 mps 707 mmHg 23%
12:00 +28°C° 0 mm 3 mps 707 mmHg 22%
13:00 +28°C° 0 mm 3 mps 706 mmHg 21%
14:00 +28°C° 0 mm 3 mps 705 mmHg 20%
15:00 +27°C° 0 mm 3 mps 705 mmHg 22%
16:00 +26°C° 0 mm 2 mps 705 mmHg 23%
17:00 +26°C° 0 mm 2 mps 705 mmHg 24%
18:00 +23°C° 0 mm 2 mps 706 mmHg 31%
19:00 +20°C° 0 mm 2 mps 706 mmHg 37%
20:00 +18°C° 0 mm 2 mps 706 mmHg 44%
21:00 +18°C° 0 mm 1 mps 706 mmHg 53%
22:00 +15°C° 0 mm 1 mps 706 mmHg 62%
23:00 +13°C° 0 mm 0 mps 706 mmHg 71%
Show more